Location: El Recuerdo
(3.6589°N, 75.6172°W)
Time: 20:13:02
(UTC+00:00)

Meteor 1-5 Rocket - Pass Details

Date: 15 March 2026
Orbit: 787 x 914 km, 81.2° (Epoch: 11 April)

Event Time Altitude Azimuth Distance (km) Brightness Sun altitude
Rises 00:29:12 0° 218° (SW) 3,538 8.0 -19.5°
Reaches altitude 10° 00:32:34 10° 237° (WSW) 2,599 7.6 -20.4°
Maximum altitude 00:36:16 17° 276° (W) 2,130 7.3 -21.3°
Drops below altitude 10° 00:39:58 10° 315° (NW) 2,587 7.3 -22.2°
Sets 00:43:21 0° 335° (NNW) 3,513 7.7 -23.0°
